Date,TemperatureHighF,TemperatureAvgF,TemperatureLowF,DewpointHighF,DewpointAvgF,DewpointLowF,HumidityHigh,HumidityAvg,HumidityLow,PressureMaxIn,PressureMinIn,WindSpeedMaxMPH,WindSpeedAvgMPH,GustSpeedMaxMPH,PrecipitationSumIn
2013-4-1,69.1,47.6,27.9,30.2,20.6,15.6,67,38,17,30.12,30.00,9,1,9,0.00
2013-4-2,71.2,50.5,30.2,30.5,21.9,15.9,69,36,17,30.15,30.06,13,2,13,0.00
2013-4-3,72.3,51.4,36.7,32.8,23.3,18.6,58,36,16,30.21,30.12,12,2,12,0.00
2013-4-4,73.2,51.2,34.2,35.1,27.1,22.5,67,42,19,30.15,29.91,18,2,18,0.00
2013-4-5,62.6,47.9,35.1,36.3,27.8,21.4,65,47,23,30.03,29.91,15,3,15,0.00
2013-4-6,58.1,45.6,38.3,32.6,26.5,18.4,67,48,30,30.03,29.94,13,3,13,0.04
2013-4-7,56.5,42.2,32.7,41.8,24.2,14.3,73,51,26,29.97,29.74,16,2,16,0.04
2013-4-8,43.9,36.5,28.2,23.0,12.0,1.2,63,38,25,30.24,29.85,16,4,16,0.00
2013-4-9,54.0,33.7,13.8,14.3,5.9,-3.5,51,32,18,30.39,30.24,11,2,11,0.00
2013-4-10,59.0,44.3,0.0,32.7,21.0,0.0,72,40,26,30.27,29.94,16,3,16,0.00
2013-4-11,54.9,44.0,33.6,33.4,17.4,8.2,74,35,23,30.15,30.03,14,3,14,0.00
2013-4-12,62.4,42.8,23.9,21.8,13.4,8.5,58,34,16,30.15,29.77,17,3,17,0.00
2013-4-13,50.2,39.2,30.4,28.5,17.5,7.6,68,43,21,29.88,29.68,19,5,19,0.00
2013-4-14,47.3,35.8,26.1,25.4,16.7,10.7,71,48,27,29.97,29.88,13,3,13,0.00
2013-4-15,43.2,33.5,26.1,14.8,4.6,-0.9,52,30,23,30.12,29.94,15,4,15,0.00
2013-4-16,43.0,30.7,15.4,6.5,1.6,-5.6,43,29,20,30.30,30.12,14,3,14,0.00
2013-4-17,50.2,31.8,11.8,10.6,2.6,-5.4,49,30,19,30.39,30.27,10,2,10,0.00
2013-4-18,57.0,39.7,21.4,16.2,9.0,0.2,44,29,18,30.33,30.27,14,3,14,0.00
2013-4-19,61.0,47.9,37.0,25.3,19.5,11.0,47,33,24,30.27,30.00,13,2,13,0.00
2013-4-20,62.2,47.4,37.6,26.1,22.2,17.7,54,38,21,30.18,30.03,23,2,23,0.00
2013-4-21,60.6,43.6,27.3,26.5,21.2,13.5,77,44,19,30.27,30.06,19,3,19,0.00
2013-4-22,48.0,33.0,20.7,15.5,8.2,3.3,60,37,19,30.45,30.24,11,2,11,0.04
2013-4-23,56.7,37.6,19.2,16.0,10.9,5.0,58,36,18,30.42,30.24,9,2,9,0.00
2013-4-24,64.6,44.1,22.1,19.6,13.1,5.7,58,32,16,30.36,30.09,13,2,13,0.00
2013-4-25,70.2,50.7,32.2,23.2,15.4,9.0,46,27,14,30.18,30.03,15,3,15,0.00
2013-4-26,76.1,54.4,32.0,25.8,19.7,13.1,51,28,14,30.27,30.18,15,3,15,0.00
2013-4-27,74.1,58.8,41.2,26.0,21.2,14.5,46,26,13,30.27,30.09,24,4,24,0.00
2013-4-28,66.2,55.1,48.0,26.1,20.6,12.5,37,26,18,30.18,30.00,18,4,18,0.00
2013-4-29,52.2,44.4,32.4,37.7,22.1,11.6,71,44,21,30.03,29.83,25,4,25,0.08
2013-4-30,51.3,37.3,24.4,19.0,11.0,4.7,62,35,19,30.36,30.00,12,3,12,0.00